Tracking 18840 objects as of 17-November-2017
HD Live streaming from Space Station
objects crossing your sky now

FENGYUN 1C DEB

Track FENGYUN 1C DEB now!
10-day predictions


NORAD ID: 30283
Int'l Code: 1999-025YU
Perigee: 761.9 km
Apogee: 1,035.9 km
Inclination: 99.0 °
Period: 102.8 minutes
Semi major axis: 7269 km
RCS: 0.0855 m2 (small)
Launch date: May 10, 1999
Source: People's Republic of China (PRC)
Launch site: Taiyaun Space Center, China (TSC)

Note: This is SATELLITE DEBRIS
aabbcc
Your satellite tracking list
Your tracking list is empty




NASA's NSSDC Master Catalog

Two Line Element Set (TLE):
1 30283U 99025YU  17321.05668319 -.00000131  00000-0 -49557-4 0  9994
2 30283  98.9861 354.0771 0188447 317.7641  92.7900 14.00592803554291
Source of the keplerian elements: AFSPC